TimeCST,TemperatureF,Dew PointF,Humidity,Sea Level PressureIn,VisibilityMPH,Wind Direction,Wind SpeedMPH,Gust SpeedMPH,PrecipitationIn,Events,Conditions,WindDirDegrees,DateUTC
12:15 AM,16.9,9.3,72,30.19,10.0,NW,18.4,-,N/A,,Clear,320,2013-02-16 06:15:00
12:35 AM,16.5,8.6,71,30.19,10.0,NNW,16.1,-,N/A,,Clear,330,2013-02-16 06:35:00
12:55 AM,16.2,8.6,72,30.20,10.0,NNW,15.0,-,N/A,,Clear,330,2013-02-16 06:55:00
1:15 AM,15.8,8.4,73,30.19,10.0,NNW,12.7,-,N/A,,Clear,340,2013-02-16 07:15:00
1:35 AM,15.4,8.1,73,30.19,10.0,NNW,13.8,-,N/A,,Clear,340,2013-02-16 07:35:00
1:55 AM,14.9,7.0,71,30.19,10.0,NNW,10.4,-,N/A,,Clear,340,2013-02-16 07:55:00
2:15 AM,14.9,7.0,71,30.19,10.0,NNW,12.7,-,N/A,,Clear,330,2013-02-16 08:15:00
2:35 AM,14.5,6.6,71,30.19,10.0,NNW,12.7,18.4,N/A,,Clear,330,2013-02-16 08:35:00
2:55 AM,14.2,6.8,73,30.18,10.0,NW,10.4,18.4,N/A,,Clear,320,2013-02-16 08:55:00
3:15 AM,13.8,6.4,72,30.17,10.0,NNW,11.5,-,N/A,,Clear,330,2013-02-16 09:15:00
3:35 AM,13.8,6.1,71,30.17,10.0,NW,9.2,-,N/A,,Clear,320,2013-02-16 09:35:00
3:55 AM,13.5,5.7,71,30.17,10.0,NW,10.4,16.1,N/A,,Clear,320,2013-02-16 09:55:00
4:15 AM,13.1,6.1,74,30.17,10.0,NW,9.2,-,N/A,,Clear,320,2013-02-16 10:15:00
4:35 AM,13.1,5.9,73,30.17,10.0,NW,8.1,-,N/A,,Clear,320,2013-02-16 10:35:00
5:35 AM,12.6,6.4,77,30.17,10.0,NW,6.9,-,N/A,,Clear,310,2013-02-16 11:35:00
5:55 AM,12.2,6.3,77,30.17,10.0,NW,8.1,-,N/A,,Clear,310,2013-02-16 11:55:00
6:15 AM,12.2,6.4,78,30.17,10.0,NW,6.9,-,N/A,,Clear,310,2013-02-16 12:15:00
6:35 AM,12.2,6.3,77,30.17,10.0,WNW,6.9,-,N/A,,Clear,300,2013-02-16 12:35:00
6:55 AM,12.2,6.6,78,30.17,10.0,WNW,6.9,-,N/A,,Clear,300,2013-02-16 12:55:00
7:35 AM,13.1,7.2,77,30.18,10.0,WNW,9.2,-,N/A,,Clear,300,2013-02-16 13:35:00
7:55 AM,14.0,7.7,76,30.18,10.0,WNW,9.2,-,N/A,,Clear,300,2013-02-16 13:55:00
8:15 AM,14.7,7.5,73,30.18,10.0,WNW,8.1,-,N/A,,Clear,290,2013-02-16 14:15:00
8:35 AM,15.3,8.1,73,30.18,10.0,WNW,9.2,-,N/A,,Clear,290,2013-02-16 14:35:00
8:55 AM,16.0,8.1,71,30.18,10.0,WNW,10.4,-,N/A,,Clear,290,2013-02-16 14:55:00
9:15 AM,16.7,8.6,70,30.18,10.0,West,9.2,-,N/A,,Clear,280,2013-02-16 15:15:00
9:35 AM,17.4,7.7,66,30.18,10.0,West,11.5,-,N/A,,Clear,270,2013-02-16 15:35:00
12:15 PM,19.9,9.7,64,30.14,10.0,NW,13.8,21.9,N/A,,Mostly Cloudy,310,2013-02-16 18:15:00
12:35 PM,20.5,9.3,62,30.13,10.0,WNW,11.5,20.7,N/A,,Overcast,300,2013-02-16 18:35:00
12:55 PM,19.4,8.8,63,30.14,10.0,NW,10.4,17.3,N/A,,Mostly Cloudy,310,2013-02-16 18:55:00
1:15 PM,19.4,9.1,64,30.13,10.0,NW,12.7,20.7,N/A,,Mostly Cloudy,310,2013-02-16 19:15:00
1:35 PM,19.8,9.3,64,30.13,10.0,WNW,15.0,19.6,N/A,,Mostly Cloudy,300,2013-02-16 19:35:00
1:55 PM,20.3,8.6,61,30.13,10.0,NW,15.0,-,N/A,,Mostly Cloudy,310,2013-02-16 19:55:00
2:15 PM,19.9,9.0,62,30.12,10.0,NW,15.0,21.9,N/A,,Overcast,310,2013-02-16 20:15:00
2:35 PM,19.4,9.1,64,30.13,10.0,NNW,12.7,18.4,N/A,,Overcast,340,2013-02-16 20:35:00
2:55 PM,19.4,8.2,62,30.13,10.0,NNW,11.5,18.4,N/A,,Mostly Cloudy,330,2013-02-16 20:55:00
3:15 PM,19.4,8.8,63,30.13,10.0,NNW,12.7,-,N/A,,Mostly Cloudy,340,2013-02-16 21:15:00
3:55 PM,18.7,7.9,63,30.14,10.0,NNW,12.7,-,N/A,,Scattered Clouds,330,2013-02-16 21:55:00
4:15 PM,18.5,8.1,64,30.14,10.0,NW,11.5,-,N/A,,Scattered Clouds,320,2013-02-16 22:15:00
4:35 PM,18.3,7.7,63,30.14,10.0,NNW,11.5,-,N/A,,Scattered Clouds,340,2013-02-16 22:35:00
4:55 PM,18.0,7.0,62,30.14,10.0,North,11.5,19.6,N/A,,Scattered Clouds,350,2013-02-16 22:55:00
5:15 PM,17.4,6.6,63,30.15,10.0,NNW,10.4,-,N/A,,Clear,340,2013-02-16 23:15:00
5:55 PM,15.8,6.6,67,30.17,10.0,North,8.1,-,N/A,,Clear,360,2013-02-16 23:55:00
6:15 PM,15.6,6.4,67,30.17,10.0,North,9.2,-,N/A,,Clear,360,2013-02-17 00:15:00
6:35 PM,15.4,5.9,66,30.17,10.0,North,8.1,-,N/A,,Clear,360,2013-02-17 00:35:00
6:55 PM,14.9,6.8,70,30.18,10.0,North,9.2,-,N/A,,Clear,10,2013-02-17 00:55:00
7:15 PM,14.9,6.3,69,30.17,10.0,North,8.1,-,N/A,,Clear,10,2013-02-17 01:15:00
7:35 PM,14.5,6.4,70,30.18,10.0,NNE,8.1,-,N/A,,Clear,20,2013-02-17 01:35:00
7:55 PM,14.2,6.3,71,30.18,10.0,NNE,5.8,-,N/A,,Clear,20,2013-02-17 01:55:00
8:15 PM,13.6,6.6,74,30.18,10.0,NNE,6.9,-,N/A,,Clear,30,2013-02-17 02:15:00
8:55 PM,12.2,6.6,78,30.18,10.0,NE,3.5,-,N/A,,Clear,50,2013-02-17 02:55:00
9:15 PM,12.2,6.6,78,30.19,10.0,Calm,Calm,-,N/A,,Clear,0,2013-02-17 03:15:00
9:35 PM,12.0,7.7,83,30.19,10.0,Calm,Calm,-,N/A,,Clear,0,2013-02-17 03:35:00
9:55 PM,12.0,7.3,81,30.19,10.0,Calm,Calm,-,N/A,,Clear,0,2013-02-17 03:55:00
10:15 PM,11.3,7.7,85,30.19,10.0,Calm,Calm,-,N/A,,Clear,0,2013-02-17 04:15:00
10:35 PM,12.2,5.9,76,30.19,10.0,Calm,Calm,-,N/A,,Clear,0,2013-02-17 04:35:00
10:55 PM,11.1,5.5,78,30.18,10.0,Calm,Calm,-,N/A,,Clear,0,2013-02-17 04:55:00
11:15 PM,10.8,5.9,81,30.18,10.0,Calm,Calm,-,N/A,,Clear,0,2013-02-17 05:15:00
11:35 PM,11.1,4.6,75,30.18,10.0,Calm,Calm,-,N/A,,Clear,0,2013-02-17 05:35:00
11:55 PM,11.1,6.8,83,30.18,10.0,Calm,Calm,-,N/A,,Clear,0,2013-02-17 05:55:00